Showing default

O3B PFM, 39191

Orbit data source: Space-Track

O3B PFM, 39191 is a payload satellite owned by O3B (JE) that was launched on Tue, 25 Jun 2013 UTC via a SOYUZ-ST-B launch vehicle from the French Guiana (FRGUI). Payload-class satellites include a variety of spacecraft equipped with specific instruments for various scientific and technological missions. These include communications satellites like Starlink; space stations such as the ISS; scientific satellites like the Hubble; Earth observation satellites from companies like Planet Labs, Umbra, and HawkEye 360; GPS; miniature CubeSats for education and research; and military/defense satellites.

Loading next visibility...
Identifier
39191, 2013-031D
Orbit
Active
Country
Flag of UnknownUnknown / O3B
Related business
Manufacturer
Thales Alenia
Mission
Operational Commercial Communications
Bus & Motor
PRISMA?, LS-400 AOCS?
Mass
700 kg wet, ~500 kg dry
Launch date (UTC)
2013-06-25 (12 years ago)
Launch vehicle
SOYUZ-ST-B
Launch site
French Guiana (FRGUI)
Object type
Payload
Rocket body
Debris
Shape & HBR
Trap Box + 2 Pan, 6.0 m
Radar Cross Section
21.980 m², Large (>1 m²)

Expand to show TLE details & history
Last TLE update: 17 hours ago

TLE from 17 hours ago
0 O3B PFM
1 39191U 13031D   25260.18866890 -.00000031  00000-0  00000-0 0  9997
2 39191   0.0407  15.3860 0003906 220.3073 124.2695  5.00115625223005
Epoch: 2025-09-17T04:31Z
TLE epoch observation values (Epoch: 2025-09-17T04:31:40.992Z)
Latitude
-0.01288°
Longitude
-64.289°
Altitude
8,067.55 km
Speed
5.253 km/s
True Right ascension
23h 59m 59s
True Declination
0° 00' 46"
Sunlit
Object was in full shadow at epoch
Visualization orbit readout
Latitude
Unknown
Longitude
Unknown
Altitude
Unknown
Speed
Unknown
Apparent Right ascension
Unknown
Apparent Declination
Unknown
Sunlit
N/A
Visualization observer readout
Local Sidereal Time
14:08:53
Azimuth
Unknown
Elevation
Unknown
Doppler factor
Unknown
Orbital elements
Apogee altitude
8,074.589 km
Perigee altitude
8,063.303 km
Semi-major axis
14,447.083 km
Eccentricity
0.00039
Inclination
0.0407°
RAAN
15.386°
Arg. of periapsis
220.3073°
True anomaly
124.30648°
Mean anomaly
124.2695°
Eccentric anomaly
124.28799°
Mean motion
1.24989 °/min
Orbital period
288.02 mins
BSTAR
0
Loading maneuver chart data...
Computing Atmospheric mass density...
Loading historical data...
Loading historical data...
Loading historical data...
Loading historical data...
Loading historical data...
Loading historical data...
Loading historical data...
Other satellites on launch #31 in the year 2013 (2013-06-25 UTC)

Documentation

Showing up to 5 results
|